Weather History for Burns, OR

Change the Weather History Date:

Tuesday, November 13, 2012

  Actual Average Record
Temperature  
Mean Temperature 36 °F 34 °F  
Max Temperature 42 °F 46 °F 64 °F (1999)
Min Temperature 29 °F 23 °F -1 °F (1985)
Degree Days  
Heating Degree Days 29 31  
Month to date heating degree days 363 367  
Since 1 July heating degree days 1188 1417  
Cooling Degree Days 0 0  
Month to date cooling degree days 0 0  
Year to date cooling degree days 309 215  
Moisture  
Dew Point 31 °F    
Average Humidity 87    
Maximum Humidity 100    
Minimum Humidity 73    
Precipitation  
Precipitation 0.01 in 0.03 in 0.51 in (1952)
Month to date precipitation 0.17 0.46  
Year to date precipitation 7.37 8.66  
Sea Level Pressure  
Sea Level Pressure 30.28 in    
Wind  
Wind Speed 2 mph (ESE)    
Max Wind Speed 8 mph    
Max Gust Speed 10 mph    
Visibility 5 miles    
Events Fog , Rain , Snow    
T = Trace of Precipitation, MM = Missing Value Source: NWS Daily Summary

Daily Weather History Graph

Daily Weather History Graph

Search for Another Location

Airport:

Trip Planner

Search our weather history database for the weather conditions in past years. The results will help you decide how hot, cold, wet, or windy it might be!

Date:

Astronomy

Nov. 13, 2012 Rise Set
Actual Time 6:47 AM PST 4:31 PM PST
Civil Twilight 6:17 AM PST 5:02 PM PST
Nautical Twilight 5:42 AM PST 5:37 PM PST
Astronomical Twilight 5:08 AM PST 6:11 PM PST
Moon 6:32 AM PST (11/13) 4:28 PM PST (11/13)
Length of Visible Light 10h 45m
Length of Day
9h 44m
Waning Crescent, 0% of the Moon is Illuminated
Nov 13
Waning Crescent
Nov 13
New
Nov 20
First Quarter
Nov 28
Full
Dec 6
Last Quarter

Hourly Weather History & Observations

Time (PST) Temp. Windchill Dew Point Humidity Pressure Visibility Wind Dir Wind Speed Gust Speed Precip Events Conditions
12:06 AM 33.8 °F - 32.0 °F 93% 30.29 in 8.0 mi Calm Calm - 0.00 in Rain Light Rain
12:15 AM 33.8 °F 30.8 °F 32.0 °F 93% 30.29 in 8.0 mi WNW 3.5 mph - 0.00 in Rain Light Rain
12:53 AM 33.1 °F 30.0 °F 32.0 °F 96% 30.35 in 9.0 mi NNE 3.5 mph - 0.00 in   Overcast
1:17 AM 33.8 °F - 30.2 °F 87% 30.28 in 4.0 mi Calm Calm - N/A   Overcast
1:35 AM 32.0 °F - 30.2 °F 93% 30.28 in 4.0 mi Calm Calm - N/A   Overcast
1:53 AM 32.0 °F 27.5 °F 30.9 °F 96% 30.35 in 5.0 mi SSE 4.6 mph - N/A   Overcast
2:53 AM 32.0 °F - 30.9 °F 96% 30.35 in 4.0 mi Calm Calm - 0.00 in   Overcast
3:16 AM 32.0 °F 28.7 °F 30.2 °F 93% 30.27 in 2.0 mi ENE 3.5 mph - 0.00 in   Overcast
3:29 AM 32.0 °F - 30.2 °F 93% 30.27 in 3.0 mi Calm Calm - 0.00 in   Overcast
3:53 AM 30.9 °F - 30.0 °F 96% 30.34 in 8.0 mi Calm Calm - 0.00 in   Overcast
4:36 AM 30.2 °F - 28.4 °F 93% 30.27 in 6.0 mi Calm Calm - N/A   Scattered Clouds
4:42 AM 30.2 °F - 28.4 °F 93% 30.26 in 1.8 mi Calm Calm - N/A   Scattered Clouds
4:47 AM 28.4 °F - 28.4 °F 100% 30.26 in 0.8 mi Calm Calm - N/A   Scattered Clouds
4:53 AM 28.9 °F - 28.0 °F 96% 30.34 in 1.0 mi Calm Calm - N/A   Mostly Cloudy
4:56 AM 28.4 °F 24.6 °F 28.4 °F 100% 30.26 in 2.0 mi West 3.5 mph - N/A   Mostly Cloudy
5:04 AM 30.2 °F 23.4 °F 28.4 °F 93% 30.27 in 6.0 mi WSW 6.9 mph - N/A   Mostly Cloudy
5:12 AM 30.2 °F 26.7 °F 30.2 °F 100% 30.27 in 6.0 mi West 3.5 mph - N/A   Overcast
5:19 AM 30.2 °F - 30.2 °F 100% 30.26 in 1.8 mi Calm Calm - N/A   Overcast
5:24 AM 30.2 °F - 30.2 °F 100% 30.26 in 0.8 mi Calm Calm - N/A   Overcast
5:53 AM 30.9 °F 27.5 °F 30.0 °F 96% 30.33 in 0.5 mi WSW 3.5 mph - N/A Fog Light Freezing Fog
5:59 AM 30.2 °F - 30.2 °F 100% 30.26 in 0.2 mi Calm Calm - N/A Fog Light Freezing Fog
6:15 AM 32.0 °F - 30.2 °F 93% 30.26 in 0.2 mi Calm Calm - N/A Fog Fog
6:31 AM 32.0 °F - 30.2 °F 93% 30.26 in 0.2 mi Calm Calm - N/A Fog Fog
6:42 AM 32.0 °F 27.5 °F 30.2 °F 93% 30.27 in 0.5 mi SSW 4.6 mph - N/A Fog Fog
6:53 AM 32.0 °F - 30.9 °F 96% 30.33 in 0.2 mi Calm Calm - N/A Fog Fog
7:18 AM 30.2 °F - 30.2 °F 100% 30.27 in 0.2 mi Calm Calm - N/A Fog Light Freezing Fog
7:23 AM 30.2 °F - 30.2 °F 100% 30.27 in 0.8 mi Calm Calm - N/A   Overcast
7:26 AM 30.2 °F - 30.2 °F 100% 30.27 in 1.8 mi Calm Calm - N/A   Overcast
7:28 AM 30.2 °F 26.7 °F 30.2 °F 100% 30.27 in 3.0 mi SSE 3.5 mph - N/A   Overcast
7:37 AM 30.2 °F - 30.2 °F 100% 30.27 in 6.0 mi Calm Calm - N/A   Overcast
7:53 AM 30.9 °F - 30.0 °F 96% 30.35 in 6.0 mi Calm Calm - N/A   Overcast
8:53 AM 32.0 °F 28.7 °F 30.9 °F 96% 30.34 in 2.5 mi NNE 3.5 mph - N/A   Overcast
8:56 AM 32.0 °F 28.7 °F 30.2 °F 93% 30.27 in 1.8 mi NE 3.5 mph - 0.00 in Snow Light Snow
9:06 AM 32.0 °F - 32.0 °F 100% 30.28 in 2.0 mi Calm Calm - 0.01 in   Overcast
9:12 AM 32.0 °F - 32.0 °F 100% 30.27 in 3.0 mi Calm Calm - 0.01 in   Overcast
9:20 AM 32.0 °F - 32.0 °F 100% 30.27 in 3.0 mi Calm Calm - 0.01 in   Overcast
9:28 AM 32.0 °F - 32.0 °F 100% 30.27 in 3.0 mi Calm Calm - 0.01 in   Overcast
9:53 AM 33.1 °F - 32.0 °F 96% 30.33 in 5.0 mi Calm Calm - 0.01 in   Overcast
10:26 AM 33.8 °F - 33.8 °F 100% 30.26 in 10.0 mi Calm Calm - N/A   Overcast
10:53 AM 35.1 °F - 34.0 °F 96% 30.31 in 10.0 mi Calm Calm - N/A   Overcast
11:53 AM 41.0 °F 38.0 °F 35.1 °F 79% 30.27 in 10.0 mi East 4.6 mph - N/A   Partly Cloudy
12:53 PM 41.0 °F 37.1 °F 34.0 °F 76% 30.25 in 10.0 mi ENE 5.8 mph - N/A   Partly Cloudy
1:53 PM 41.0 °F 38.0 °F 35.1 °F 79% 30.23 in 10.0 mi ENE 4.6 mph - N/A   Overcast
2:53 PM 39.9 °F 36.7 °F 34.0 °F 79% 30.22 in 10.0 mi ENE 4.6 mph - N/A   Overcast
3:53 PM 39.0 °F 35.7 °F 34.0 °F 82% 30.22 in 10.0 mi East 4.6 mph - N/A   Overcast
4:53 PM 37.0 °F 34.5 °F 33.1 °F 86% 30.22 in 10.0 mi East 3.5 mph - N/A   Overcast
5:53 PM 37.0 °F - 34.0 °F 89% 30.21 in 10.0 mi Calm Calm - N/A   Overcast
6:53 PM 36.0 °F 32.1 °F 33.1 °F 89% 30.23 in 9.0 mi South 4.6 mph - 0.00 in Rain Light Rain
7:53 PM 35.1 °F - 33.1 °F 92% 30.23 in 9.0 mi Calm Calm - 0.00 in   Mostly Cloudy
8:53 PM 33.1 °F - 30.9 °F 92% 30.24 in 8.0 mi Calm Calm - N/A   Mostly Cloudy
9:53 PM 32.0 °F 27.5 °F 30.0 °F 92% 30.24 in 6.0 mi SW 4.6 mph - N/A   Scattered Clouds
10:53 PM 30.9 °F - 28.9 °F 92% 30.25 in 6.0 mi Calm Calm - N/A   Clear
11:53 PM 30.0 °F 26.5 °F 28.9 °F 96% 30.25 in 4.0 mi WSW 3.5 mph - N/A   Partly Cloudy